STARLINK-30386, 57816

Orbit data source: Space-Track

STARLINK-30386, 57816 is a payload satellite owned by SpaceX/Seattle (US) in LEO that was launched on Sat, 09 Sep 2023 UTC via an FALCON 9 launch vehicle from the Air Force Eastern Test Range (AFETR). Payload-class satellites include a variety of spacecraft equipped with specific instruments for various scientific and technological missions. These include communications satellites like Starlink; space stations such as the ISS; scientific satellites like the Hubble; Earth observation satellites from companies like Planet Labs, Umbra, and HawkEye 360; GPS; miniature CubeSats for education and research; and military/defense satellites.

Loading next visibility...
Identifier
57816, 2023-138J
Orbit
LEO
Country
Flag of USUS
Related business
Manufacturer
SpaceX/Seattle
Mission
Operational Commercial Communications
Bus & Motor
STARLINK V2M, Unknown motor
Mass
730 kg wet, ~700 kg dry
Launch date (UTC)
2023-09-09 (3 years ago)
Launch vehicle
FALCON 9
Launch site
Air Force Eastern Test Range (AFETR)
Object type
Payload
Rocket body
Debris
Shape & HBR
Box + 2 Pan, 17.7 m
Radar Cross Section
33.884 m², Large (>1 m²)

Expand to show TLE details & history
Last TLE update: 3 days ago

TLE from 3 days ago
0 STARLINK-30386
1 57816U 23138J   26170.61531653 -.00000815  00000-0 -20118-4 0  9992
2 57816  43.0026  18.8102 0001266 279.0306  81.0403 15.27563568154145
Epoch: 2026-06-19T14:46Z
TLE epoch observation values (Epoch: 2026-06-19T14:46:03.348Z)
Latitude
0.00004°
Longitude
-110.54546°
Altitude
482.739 km
Speed
7.626 km/s
True Right ascension
01h 15m 14s
True Declination
0° 00' 00"
Sunlit
Object was in daylight at epoch
Visualization orbit readout
Latitude
Unknown
Longitude
Unknown
Altitude
Unknown
Speed
Unknown
Apparent Right ascension
Unknown
Apparent Declination
Unknown
Sunlit
N/A
Visualization observer readout
Local Sidereal Time
21:33:53
Azimuth
Unknown
Elevation
Unknown
Doppler factor
Unknown
Orbital elements
Apogee altitude
485.912 km
Perigee altitude
484.174 km
Semi-major axis
6,863.18 km
Eccentricity
0.00013
Inclination
43.0026°
RAAN
18.8102°
Arg. of periapsis
279.0306°
True anomaly
81.05463°
Mean anomaly
81.0403°
Eccentric anomaly
81.04747°
Mean motion
3.81729 °/min
Orbital period
94.31 mins
BSTAR
-0.000020118
Loading maneuver chart data...
Computing Atmospheric mass density...
Loading historical data...
Loading historical data...
Loading historical data...
Loading historical data...
Loading historical data...
Loading historical data...
Loading historical data...

Documentation

Showing up to 5 results
|